Flag for Germany Weather past 2 weeks in Mülheim / Ruhr, North Rhine-Westphalia, Germany

50 °F

Rain. Fog.

Feels Like: 44 °F
Forecast: 45 / 54 °F
Wind: 18 mph from Southwest

Location: Duesseldorf

Current Time: Nov 30, 2015 at 2:34:21 PM

Latest Report: Nov 30, 2015 at 1:50 PM

Visibility: 3 mi

Pressure: 29.98 "Hg

Humidity: 94%

Dew point: 48 °F

Location of Mülheim / RuhrLocation

Historic Weather in Mülheim / Ruhr — Graph


Mülheim / Ruhr temperature yesterday

Maximum temperature yesterday: 54 °F (at 6:20 PM)
Minimum temperature yesterday: 45 °F (at 12:20 AM)
Average temperature yesterday: 49 °F

Past Weeks' High & Low Weather Summary

High61 °F (Nov 15, 1:50 PM)100% (Nov 17, 3:20 AM)30.27 "Hg (Nov 17, 3:20 AM)
Low32 °F (Nov 22, 7:20 AM)59% (Nov 18, 3:20 AM)29.39 "Hg (Nov 21, 7:20 AM)
Average45 °F83%29.86 "Hg
* Reported Nov 15 1:20 PM — Nov 30 1:20 PM, Mülheim / Ruhr, Weather by CustomWeather, © 2015

Note: Actual official high and low records may vary slightly from our data, if they occured in-between our weather recording intervals... More about our weather records


Mülheim / Ruhr weather history for previous 24 hours

Time TempWeatherWind HumidityBarometerVisibility
1:20 PM
Mon, Nov 30
48 °FRain. Broken clouds.14 mph94%29.98 "Hg4 mi
12:50 PM46 °FLight rain. Broken clouds.13 mph100%30.01 "Hg4 mi
12:20 PM46 °FLight rain. Partly sunny.10 mph93%30.01 "Hg5 mi
11:50 AM46 °FLight rain. Partly sunny.8 mph87%30.07 "HgN/A
11:20 AM45 °FLight rain. Broken clouds.10 mph87%30.07 "Hg6 mi
10:50 AM46 °FLight rain. More clouds than sun.13 mph82%30.07 "HgN/A
10:20 AM46 °FLight rain. Clear.12 mph76%30.09 "HgN/A
9:50 AM46 °FSunny.10 mph76%30.09 "Hg10 mi
9:20 AM45 °FMore clouds than sun.8 mph81%30.09 "HgN/A
8:50 AM45 °FOvercast.9 mph81%30.09 "HgN/A
8:20 AM45 °FMore clouds than sun.7 mph76%30.09 "HgN/A
7:50 AM46 °FMostly cloudy.10 mph71%30.09 "HgN/A
7:20 AM46 °FMostly cloudy.9 mph71%30.07 "HgN/A
6:50 AM48 °FPartly cloudy.12 mph66%30.07 "HgN/A
6:20 AM48 °FLight rain. Passing clouds.9 mph71%30.04 "HgN/A
5:50 AM48 °FLight rain. Passing clouds.10 mph71%30.04 "HgN/A
5:20 AM48 °FClear.15 mph71%30.01 "Hg10 mi
4:50 AM48 °FPartly cloudy.12 mph71%30.01 "HgN/A
4:20 AM48 °FPartly cloudy.13 mph76%29.98 "HgN/A
3:50 AM48 °FClear.13 mph76%29.98 "Hg10 mi
3:20 AM48 °FPassing clouds.15 mph76%29.95 "HgN/A
2:50 AM50 °FMostly cloudy.15 mph76%29.95 "HgN/A
2:20 AM50 °FPartly cloudy.16 mph82%29.92 "HgN/A
1:50 AM50 °FClear.16 mph82%29.89 "Hg10 mi
1:20 AM48 °FClear.13 mph87%29.89 "Hg10 mi
12:50 AM48 °FPassing clouds.15 mph94%29.86 "HgN/A
11:50 PM
Sun, Nov 29
50 °FLight rain. Passing clouds.23 mph94%29.86 "HgN/A
11:20 PM52 °FLight rain. Partly cloudy.25 mph88%29.80 "HgN/A
10:50 PM52 °FRain. Passing clouds.32 mph88%29.80 "Hg6 mi
10:20 PM52 °FLight rain. Partly cloudy.33 mph88%29.77 "HgN/A
9:50 PM52 °FLight rain. Passing clouds.32 mph88%29.77 "HgN/A
9:20 PM52 °FLight rain. Passing clouds.33 mph88%29.77 "HgN/A
8:50 PM52 °FLight rain. Passing clouds.33 mph88%29.77 "HgN/A
8:20 PM52 °FLight rain. Partly cloudy.30 mph88%29.77 "HgN/A
7:50 PM52 °FLight rain. Passing clouds.30 mph88%29.77 "HgN/A
7:20 PM52 °FLight rain. Partly cloudy.29 mph88%29.77 "HgN/A
6:50 PM52 °FLight rain. Passing clouds.29 mph82%29.77 "HgN/A
6:20 PM54 °FPassing clouds.26 mph77%29.77 "HgN/A
5:50 PM52 °FPartly cloudy.25 mph82%29.77 "HgN/A
5:20 PM52 °FLight rain. Passing clouds.24 mph82%29.77 "HgN/A
4:50 PM52 °FPartly cloudy.24 mph82%29.77 "HgN/A
4:20 PM52 °FLight rain. Partly sunny.23 mph82%29.77 "HgN/A
3:50 PM52 °FPartly sunny.26 mph82%29.77 "HgN/A
3:20 PM52 °FLight rain. Partly sunny.24 mph82%29.77 "HgN/A
2:50 PM52 °FLight rain. Broken clouds.24 mph88%29.77 "HgN/A
2:20 PM50 °FBroken clouds.22 mph94%29.77 "HgN/A
Weather by CustomWeather, © 2015

See weather overviewHow to use our weather pages